Hovedside
METAR-TAF:

METAR-TAF

Lufthavner :

Vilhelmina, Sverige

breddegrad: 64-34-44N, lengdegrad: 016-50-00E, høyde over havet: 347 m

Gjeldene værobservasjon

Denne rapporten ble laget for 17 minutter siden, klokken 01:20 UTC
Vind 3 kt fra Nordvest
Temperatur -3°C
Luftfuktighet 86%
Trykk 1015 hPa
Sikt 10 km eller mer

METAR: ESNV 110120Z AUTO 32003KT 9999 FEW013/// OVC031/// M03/M05 Q1015

Tid: 02:37 (01:37 UTC)


TAF: fraværende

Værobservasjoner og værvarsel for over 4000 flyplasser (METAR- og TAF-rapporter).

Tilgjengelige stasjoner er representert av de røde og gule prikkene på kartet.

Hold musepekeren over prikken for å se navnet på stasjonen.

Klikk så for å se værobservasjoner og -varsler.

For å forandre kartet kan du klikke på den grønne knappen med svart kryss for å zoome inn, på den grønne knappen med strek for å zoome ut, eller på de grønne pilene for å se tilstøtende kart.


METAR-TAF: